National Oceanic Atmosphere Administration National Weather Service Headquarters National Weather Service Headquarters
NOAA logo WFO Anchorage Scalable transition graphic NWS logo
Transition from title bar to navgation bar   Aviation Weather 19 AKST 
blankspace Home   |   Mobile   |   Social Media   |   Mesonet   |   Surface Map   |   Radar   |   Submit Storm Reports   |   News =04 GMT 

LocalForecast by City, St or Zip Code

spacer

Forecasts/Products
  Public
  Forecast Discussion
    - With Glossary
  Aviation
  Marine
  Hydrology(RFC)
  Rivers & Lakes AHPS
  Ice Desk
  TV Weather
  Fire Weather
  Avalanche
  Travel 511
  Graphical
  xml logo RSS Feeds
  Marine FTPMail

spacer

Data
  Mesonet
  Model Graphics
  Local Model
  Observations
  Marine Obs
  Satellite/Radar
  Vent Factor
  Soaring Index
  Weather Links

spacer

Climate
  PAFC Climate
  Interactive Climate
  PAFC Records
  Local
  National
  More

spacer

Outreach
  About Us
  Community Outreach
  Kids' Page
  Tour/Speaker Request
  Weather Classroom
  Social Media

spacer

Reports
  COOP Observers
  Local Storm Reports
  Spotter Page
  Submit a Storm Report

spacer

Miscellaneous
  Archived Alaska Weather Stories
  Student Career Opportunities
  Research Papers

spacer

Print Friendly/
Low Bandwidth

  Public Forecasts
  Marine Forecasts

spacer

Contact Us
  mailto pafcweb

spacer

Facebook Follow the National Weather Service in Alaska on Twitter
USA.gov is the U.S. government's official web portal to all federal, state and local government web resources and services.


 ICAO ID:   AAWU Graphics

Internet access to TAFs and METAR observations is for planning purposes only. We can not guarantee the timeliness of internet products. Before flying please get a formal pilot briefing (1-800-992-7433) and ALWAYS file a Flight Plan!Pilot briefings are provided to licensed aircraft pilots, ONLY! Others may not use the above number to obtain weather information.

Check out the Key to TAFs and METARs for help with decoding the information.

A 12 hour summary of TAFs can be found here.

PAKN TAF
PAKN 092341Z 1000/1024  09010KT P6SM BKN250
     FM100200 05016KT P6SM BKN250
     FM100600 05010KT P6SM BKN250 WS020/08040KT=




METAR PAKN 100354Z 05007KT 10SM SCT095 BKN240 02/M02 A2968 RMK AO2
     SLP050 T00221022=
METAR PAKN 100354Z 05007KT 10SM SCT095 BKN240 02/M02 A2968=
METAR PAKN 100254Z 02009KT 10SM FEW070 BKN250 02/M02 A2969 RMK AO2
 SLP053 T00221017 56016=
METAR PAKN 100254Z 02009KT 10SM FEW070 BKN250 02/M02 A2969=
METAR PAKN 100154Z 05008KT 10SM BKN250 05/M02 A2970 RMK AO2 SLP057
     T00501017=
METAR PAKN 100154Z 05008KT 10SM BKN250 05/M02 A2970=
METAR PAKN 100054Z 07013KT 10SM BKN250 05/M01 A2971 RMK AO2 SLP060
 T00501011=
METAR PAKN 100054Z 07013KT 10SM BKN250 05/M01 A2971=


National Weather Service
Anchorage Forecast Office
6930 Sand Lake Road
Anchorage, Ak 99502
(907) 266-5105 M-F/7-5pm
About Us
Career Opportunities
Glossary
Disclaimer
Privacy Policy
Credits
Alaska Weather Information Line:
1-800-472-0391